• MPC Preparation (Info)

  • MPEC 2000-W56 : 2000 WK63

    The following Minor Planet Electronic Circular may be linked-to from your own Web pages, but must not otherwise be redistributed electronically.

    A form allowing access to any MPEC is at the bottom of this page.


    Read MPEC 2000-W55 Read MPEC 2000-W57


    M.P.E.C. 2000-W56                                Issued 2000 Nov. 29, 19:13 UT
    
         The Minor Planet Electronic Circulars contain information on unusual
             minor planets and routine data on comets.  They are published
       on behalf of Commission 20 of the International Astronomical Union by the
              Minor Planet Center, Smithsonian Astrophysical Observatory,
                              Cambridge, MA 02138, U.S.A.
    
                 Prepared using the Tamkin Foundation Computer Network
    
                                  MPC@CFA.HARVARD.EDU
              URL http://cfa-www.harvard.edu/iau/mpc.html  ISSN 1523-6714
    
                                       2000 WK63
    
    Observations:
         K00W63K* C2000 11 26.32187 05 15 34.12 +04 16 31.8          18.7        704
         K00W63K  C2000 11 26.33667 05 15 32.80 +04 16 23.8          19.0        704
         K00W63K  C2000 11 26.35150 05 15 31.49 +04 16 16.0          19.2        704
         K00W63K  C2000 11 26.36795 05 15 29.98 +04 16 08.1          18.8        704
         K00W63K  C2000 11 27.34328 05 14 04.04 +04 07 45.9          18.5        704
         K00W63K  C2000 11 27.35240 05 14 03.07 +04 07 42.3          18.6 R      853
         K00W63K  C2000 11 27.35333 05 14 03.01 +04 07 41.7          18.7 R      853
         K00W63K  C2000 11 27.35813 05 14 02.56 +04 07 39.3          18.1        704
         K00W63K  C2000 11 27.36286 05 14 02.15 +04 07 35.8          18.6        704
         K00W63K  C2000 11 27.37313 05 14 01.11 +04 07 31.1          18.4        704
         K00W63K  C2000 11 27.38283 05 14 00.29 +04 07 26.4          18.6        704
         K00W63K  C2000 11 27.38765 05 13 59.80 +04 07 24.1          18.9        704
         K00W63K  C2000 11 27.40215 05 13 58.45 +04 07 16.6          18.6        704
         K00W63K  C2000 11 27.40426 05 13 58.12 +04 07 14.8          18.9        704
         K00W63K  C2000 11 27.41667 05 13 57.10 +04 07 08.9          18.6        704
         K00W63K  C2000 11 27.58892 05 13 42.03 +04 05 49.0          17.8 R      428
         K00W63K  C2000 11 27.91855 05 13 12.21 +04 02 51.4          17.9 R      046
         K00W63K  C2000 11 27.92117 05 13 11.89 +04 02 50.4                      046
         K00W63K  C2000 11 27.92258 05 13 11.75 +04 02 49.2                      046
         K00W63K  C2000 11 27.92416 05 13 11.66 +04 02 48.5                      046
         K00W63K  C2000 11 28.04412 05 13 00.52 +04 01 48.0                      118
         K00W63K  C2000 11 28.05004 05 12 59.96 +04 01 44.1          18.0 R      118
         K00W63K  C2000 11 28.05391 05 12 59.59 +04 01 42.1                      118
         K00W63K  C2000 11 28.12512 05 12 53.27 +04 01 07.8                      837
         K00W63K  C2000 11 28.13604 05 12 52.43 +04 01 02.3                      837
         K00W63K  C2000 11 28.14736 05 12 51.32 +04 00 57.5                      837
         K00W63K IC2000 11 29.35542 05 10 58.66 +03 50 44.2                      711
         K00W63K  C2000 11 29.36304 05 10 57.96 +03 50 38.7                      711
         K00W63K  C2000 11 29.37048 05 10 57.18 +03 50 36.0                      711
    
    Observer details:
    046 Klet.  Observers M. Tichy, M. Kocer.  0.57-m f/5.2 reflector + CCD.
    118 Modra.  Observers S. Gajdos, J. Toth.  0.6-m f/5.5 reflector + CCD.
    428 Reedy Creek.  Observer J. Broughton.  0.25-m f/6.3 Schmidt-Cassegrain
        + CCD.
    704 Lincoln Laboratory ETS, New Mexico.  Observers M. Blythe, F. Shelly,
        M. Bezpalko, M. Elowitz, R. Huber, L. Manguso.  Measurers J. Stuart,
        R. Sayer, J. B. Evans, H. Viggh.  1.0-m f/2.15 reflector + CCD.
    711 McDonald Observatory.  Observer J. G. Ries.  0.76-m reflector + CCD.
    837 Jupiter.  Observer L. Sikes.  Measurer B. Segal.  0.36-m f/11
        Schmidt-Cassegrain + CCD.
    853 Biosphere 2 Observatory.  Observer G. J. Garradd.  0.6-m f/8.1 reflector
        + CCD.
    
    Orbital elements:
    2000 WK63
    Epoch 2000 Nov. 12.0 TT = JDT 2451860.5                 Spahr
    M 321.47640              (2000.0)            P               Q
    n   0.23923735     Peri.   40.24004     -0.89702808     +0.43963533
    a   2.5699030      Node   165.63671     -0.43775433     -0.86960394
    e   0.7805656      Incl.   10.54593     -0.06092426     -0.22474376
    P   4.12           H   15.9           G   0.15
    From 29 observations 2000 Nov. 26-29.
    
    Ephemeris:
    2000 WK63                a,e,i = 2.57, 0.78, 11                  q = 0.5639
    Date    TT    R. A. (2000) Decl.     Delta      r     Elong.  Phase     V
    2000 11 22    05 21.44   +04 53.9    1.302    2.229   153.3    11.5    18.9
    2000 12 02    05 06.68   +03 28.8    1.179    2.132   159.9     9.2    18.5
    2000 12 12    04 48.28   +02 13.1    1.085    2.031   158.0    10.5    18.3
    2000 12 22    04 27.75   +01 16.9    1.021    1.928   148.2    15.6    18.2
    2001 01 01    04 07.35   +00 49.2    0.983    1.820   135.5    22.2    18.2
    2001 01 11    03 49.41   +00 54.5    0.966    1.708   122.4    29.1    18.3
    2001 01 21    03 35.51   +01 31.6    0.961    1.592   109.9    35.5    18.3
    2001 01 31    03 26.41   +02 36.5    0.959    1.472    98.4    41.5    18.3
    2001 02 10    03 22.06   +04 04.0    0.953    1.347    87.9    47.0    18.2
    2001 02 20    03 21.91   +05 50.6    0.936    1.219    78.5    52.7    18.1
    2001 03 02    03 25.17   +07 54.4    0.903    1.087    69.9    58.9    18.0
    2001 03 12    03 30.57   +10 16.0    0.847    0.953    61.7    66.7    17.8
    
    2001 06 20    00 06.80   +11 45.4    0.768    1.192    82.6    57.7    17.8
    2001 06 30    00 02.25   +10 27.9    0.784    1.321    93.5    50.2    17.8
    2001 07 10    23 53.81   +08 44.6    0.792    1.447   105.5    42.6    17.9
    2001 07 20    23 41.00   +06 28.6    0.801    1.568   118.8    34.6    17.8
    2001 07 30    23 24.17   +03 39.1    0.818    1.684   133.3    26.0    17.8
    2001 08 09    23 04.70   +00 26.1    0.853    1.797   148.5    17.1    17.7
    2001 08 19    22 44.65   -02 51.9    0.913    1.906   163.9     8.5    17.7
    2001 08 29    22 26.27   -05 54.1    1.001    2.010   176.4     1.8    17.6
    2001 09 08    22 11.24   -08 25.6    1.119    2.111   166.1     6.6    18.3
    2001 09 18    22 00.33   -10 21.2    1.264    2.209   153.4    11.8    18.8
    2001 09 28    21 53.58   -11 42.5    1.432    2.303   141.6    15.7    19.3
    2001 10 08    21 50.58   -12 34.4    1.619    2.394   130.8    18.4    19.8
    2001 10 18    21 50.73   -13 02.3    1.820    2.482   120.8    20.2    20.2
    2001 10 28    21 53.47   -13 10.9    2.033    2.567   111.4    21.1    20.5
    2001 11 07    21 58.25   -13 03.9    2.252    2.650   102.5    21.4    20.8
    2001 11 17    22 04.64   -12 44.5    2.476    2.730    94.0    21.2    21.1
    
    Timothy B. Spahr             (C) Copyright 2000 MPC           M.P.E.C. 2000-W56
    

    Read MPEC 2000-W55 Read MPEC 2000-W57


    MPEC number:

    Enter an MPEC number in one of the following forms:

    • 1997-B01 (the full form)
    • J97B01 (the packed version of the full form)
    • B01 (the abbreviated form)